Location: Izdebno
(52.6670°N, 16.2170°E)
Time: 10:28:25
(UTC+01:00)

Transit 2A - Pass Details

Date: 04 February 2023
Orbit: 591 x 964 km, 66.7° (Epoch: 21 March)

Event Time Altitude Azimuth Distance (km) Brightness Sun altitude
Rises 00:20:52 0° 319° (NW) 3,415 - -53.6°
Reaches altitude 10° 00:23:18 10° 324° (NW) 2,528 - -53.6°
Maximum altitude 00:29:10 59° 43° (NE) 1,064 - -53.5°
Drops below altitude 10° 00:35:24 10° 123° (ESE) 2,683 - -53.3°
Sets 00:38:03 0° 127° (SE) 3,640 - -53.3°
